Location: Mohawk View
(42.7837°N, 73.7885°W)
Time: 13:06:46
(UTC+00:00)

Lacrosse 5 rocket - Pass Details

Date: 17 June 2021
Orbit: 459 x 634 km, 57.0° (Epoch: 26 July)

Event Time Altitude Azimuth Distance (km) Brightness Sun altitude
Rises 03:11:31 0° 239° (WSW) 2,536 4.7 -19.6°
Reaches altitude 10° 03:13:45 10° 245° (WSW) 1,639 3.7 -19.8°
Maximum altitude 03:17:17 48° 321° (NW) 621 2.0 -20.0°
Drops below altitude 10° 03:20:47 10° 37° (NE) 1,611 4.1 -20.3°
Sets 03:22:57 0° 43° (NE) 2,486 5.0 -20.4°
